Regional Weather Roundup
Issued by NWS

Home | Current Version | Previous Version | Text Only | Print | Product List | Glossary Off
Versions: 1 2 3 4 5 6 7 8 9 10 11 12 13 14 15 16 17 18 19 20 21 22 23 24 25 26 27 28 29 30 31 32 33 34 35 36 37 38 39 40 41 42 43 44 45 46 47 48 49 50

000
ASUS43 KMKX 282159
RWRWI

WISCONSIN REGIONAL WEATHER ROUNDUP
NATIONAL WEATHER SERVICE MILWAUKEE/SULLIVAN WI
400 PM CST SAT FEB 28 2015

NOTE: "FAIR" INDICATES FEW OR NO CLOUDS BELOW 12,000 FEET WITH NO
SIGNIFICANT WEATHER AND/OR OBSTRUCTIONS TO VISIBILITY.

WIZ001-002-006>008-014>016-023>028-282300-
NORTHWEST WISCONSIN

CITY           SKY/WX    TMP DP  RH WIND       PRES   REMARKS
SUPERIOR ARPT  SUNNY     24   4  42 S17G23    30.33F WCI  10
ASHLAND        SUNNY     22  -2  35 SW16G24   30.36F WCI   8
HAYWARD        SUNNY     17   0  47 S17       30.35F WCI   1
SIREN          SUNNY     20   3  48 S10G21    30.36F WCI   9
CUMBERLAND     SUNNY     18   1  49 S14       30.37F WCI   4
RICE LAKE      SUNNY     18   2  50 S13       30.42S WCI   4
CHETEK         SUNNY     17   2  50 S13       30.42S WCI   4
LADYSMITH      SUNNY     18  -1  43 S12       30.42F WCI   6
EAU CLAIRE     SUNNY     17  -2  43 SW14      30.43F WCI   3
MENOMONIE      SUNNY     18  -1  43 S12       30.44F WCI   6
NEW RICHMOND   MOSUNNY   18   3  52 S17       30.40F WCI   2
OSCEOLA        SUNNY     20   5  51 S16       30.42F WCI   6
$$

WIZ003>005-009-010-017-018-282300-
NORTH CENTRAL WISCONSIN

CITY           SKY/WX    TMP DP  RH WIND       PRES   REMARKS
MANITOWISH WTR SUNNY     20  -3  36 SW12G18   30.33F WCI   8
ARBOR VITAE    SUNNY     22   0  38 S14       30.34F WCI   9
WOODRUFF       SUNNY     22   0  38 S14       30.34F WCI   9
RHINELANDER    SUNNY     17  -3  41 S14       30.37F WCI   3
EAGLE RIVER    SUNNY     20  -7  30 SW9       30.35S WCI  10
LAND O LAKES   SUNNY     23  -6  28 S9        30.34F WCI  13
PHILLIPS       SUNNY     17  -2  43 S14       30.37F WCI   3
TOMAHAWK       SUNNY     18  -6  33 CALM      30.40S
MEDFORD        SUNNY     16  -1  48 S10       30.40F WCI   3
MERRILL        SUNNY     18  -1  43 SW6       30.42F WCI   9
$$

WIZ029-030-035-036-043>047-282300-
CENTRAL WISCONSIN

CITY           SKY/WX    TMP DP  RH WIND       PRES   REMARKS
WAUSAU         SUNNY     18  -5  36 S12       30.42F WCI   5
MOSINEE        SUNNY     18  -2  41 S12       30.43F WCI   5
MARSHFIELD     SUNNY     18  -4  37 S12       30.42F WCI   5
STEVENS POINT  SUNNY     18  -4  38 S14       30.46F WCI   4
WAUPACA        SUNNY     24  -4  28 S8        30.50F WCI  15
WAUTOMA        NOT AVBL
WISC RAPIDS    SUNNY     18  -6  34 S13       30.47F WCI   5
CAMP DOUGLAS   NOT AVBL
$$

WIZ011>013-019>022-031-037>040-048>050-282300-
NORTHEAST WISCONSIN

CITY           SKY/WX    TMP DP  RH WIND       PRES   REMARKS
ANTIGO         SUNNY     17  -1  44 SW13      30.40F WCI   4
SHAWANO        SUNNY     23  -1  34 S7        30.50F WCI  15
OCONTO         SUNNY     19   2  46 S8        30.52F WCI   9
STURGEON BAY   SUNNY     19   1  45 SW10      30.53F WCI   8
GREEN BAY      SUNNY     19   3  49 S10       30.52F WCI   7
MANITOWOC      NOT AVBL
APPLETON       SUNNY     19   0  42 SW12G17   30.51F WCI   7
CLINTONVILLE   SUNNY     21   0  39 S9        30.49F WCI  11
OSHKOSH        SUNNY     18   0  45 SW14      30.52F WCI   4
$$

WIZ032>034-041-042-053>061-282300-
SOUTHWEST WISCONSIN

CITY           SKY/WX    TMP DP  RH WIND       PRES   REMARKS
LA CROSSE      SUNNY     19  -1  41 S12       30.48F WCI   7
SPARTA         SUNNY     19  -2  40 S5        30.49F WCI  12
VIROQUA        SUNNY     17  -4  38 S10       30.45F WCI   5
BOSCOBEL       SUNNY     17  -1  45 VRB3      30.52F
PRAIRIE DU CHI PTSUNNY   17  -1  44 SE8       30.52F WCI   6
PLATTEVILLE    MOSUNNY   14   2  59 NE3       30.51F
$$

WIZ056-057-062-063-064-067-068-282300-
SOUTH CENTRAL WISCONSIN

CITY           SKY/WX    TMP DP  RH WIND       PRES   REMARKS
REEDSBURG      SUNNY     17  -2  43 S9        30.50F WCI   6
BARABOO/DELLS  SUNNY     18  -4  38 S6        30.49F WCI  10
LONE ROCK      NOT AVBL
MINERAL POINT  SUNNY     18   1  49 S7        30.50F WCI   8
MADISON        MOSUNNY   16   0  49 S12       30.52F WCI   3
MIDDLETON      SUNNY     19  -2  39 SW9       30.53F WCI   7
WATERTOWN      SUNNY     17   0  46 S9        30.54F WCI   6
MONROE         SUNNY     16   5  62 SE7       30.52F WCI   6
JANESVILLE     SUNNY     19   0  42 S12       30.54  WCI   7
$$

WIZ051-052-058>065-066-070>072-282300-
SOUTHEAST WISCONSIN

CITY           SKY/WX    TMP DP  RH WIND       PRES   REMARKS
MILWAUKEE      MOSUNNY   18  -1  43 SW5       30.56F WCI  11
WAUKESHA       SUNNY     18  -6  35 S9        30.55F WCI   6
MILWAUKEE/TIMM SUNNY     19  -6  32 S5        30.56F WCI  13
RACINE         SUNNY     19   5  54 S7        30.58F WCI  10
BURLINGTON     SUNNY     18  -1  43 SW5       30.55F WCI  11
KENOSHA        SUNNY     19   6  57 CALM      30.55F
FOND DU LAC    SUNNY     19  -1  41 SW13      30.53F WCI   6
SHEBOYGAN      SUNNY     19   4  51 S10       30.54F WCI   7
WEST BEND      SUNNY     21  -4  33 S6        30.54F WCI  14
JUNEAU         SUNNY     17  -1  47 S9        30.54F WCI   5
$$

LSZ147-162-282300-
LAKE SUPERIOR

STATION/POSITION TIME  TEMP    WIND        PRES    WAVE
                       AIR SEA DIR/SP/G            HT/PER
                 (UTC) (F)     (DEG/KT/KT) (MB)    (FT/S)
DEVILS ISLAND    2100   22     260/  2/  3 1029.5F
PORT WING        2100   23     180/ 11/ 16 1028.1
SAXON HARBOR     2100   25     210/ 11/ 20 1028.4F
$$

LMZ867-665-643>646-282300-
LAKE MICHIGAN

STATION/POSITION TIME  TEMP    WIND        PRES    WAVE
                       AIR SEA DIR/SP/G            HT/PER
                 (UTC) (F)     (DEG/KT/KT) (MB)    (FT/S)
NORTHPORT PIER   2100   22     160/  5/ 14 1033.5F
SISTER BAY       2113   30     270/ 12/ 13   N/A
KEWAUNEE LAKESHO 2112   20     180/ 16/ 18 1033.3F
SHEBOYGAN LAKESH 2100   18     170/ 14/ 16 1036.5F
PORT WASHINGTON  2140   20     170/ 15/ 18 1035.6S
MILWAUKEE LAKESH 2100   18     170/ 10/ 12   N/A
KENOSHA   LAKESH 2100   20     150/  8/ 13 1035.6F
$$

TC  - TEMPERATURE IN CELSIUS
VSB - VISIBILITY IN STATUTE MILES
WCI - WIND CHILL INDEX
HX  - HEAT INDEX



USA.gov is the U.S. government's official web portal to all federal, state and local government web resources and services.